Location: Ostrava
(49.8330°N, 18.2830°E)
Time: 07:54:34
(UTC+02:00)

Explorer 7 - Visible Passes

Search period start: 23 October 2014 00:00
Search period end: 01 November 2014 23:00
Orbit: 491 x 705 km, 50.3° (Epoch: 22 October)

Date Brightness Start Highest point End Pass type
(mag) Time Alt. Az. Time Alt. Az. Time Alt. Az.
23 Oct 9.7 03:56:57 14° ESE 03:56:57 14° ESE 03:58:44 10° E visible
23 Oct 7.8 05:33:37 23° SW 05:36:16 50° SSE 05:40:59 10° ENE visible
24 Oct 9.2 04:06:56 21° ESE 04:06:56 21° ESE 04:09:34 10° E visible
24 Oct 7.4 05:43:36 25° SW 05:46:15 66° SSE 05:51:07 10° ENE visible
25 Oct 8.8 04:16:50 29° ESE 04:16:50 29° ESE 04:19:57 10° E visible
25 Oct 7.2 05:53:29 24° WSW 05:56:18 82° SSE 06:01:14 10° E visible
26 Oct 8.3 03:26:39 39° ESE 03:26:39 39° ESE 03:30:09 10° ENE visible
26 Oct 7.2 05:03:19 21° W 05:06:24 88° N 05:11:20 10° E visible
27 Oct 7.8 03:36:25 51° ESE 03:36:25 51° ESE 03:40:16 10° ENE visible
27 Oct 7.2 05:13:04 19° W 05:16:30 84° N 05:21:26 10° E visible
28 Oct 7.4 03:46:09 66° E 03:46:09 66° E 03:50:21 10° E visible
28 Oct 7.2 05:22:48 16° W 05:26:35 86° N 05:31:32 10° E visible
29 Oct 10.3 02:19:12 10° E 02:19:12 10° E 02:19:15 10° E visible
29 Oct 7.1 03:55:51 80° ENE 03:55:51 80° ENE 04:00:25 10° E visible
29 Oct 7.2 05:32:29 13° W 05:36:39 86° SSW 05:41:37 10° ESE visible
30 Oct 10.1 02:28:53 13° E 02:28:53 13° E 02:29:20 10° ENE visible
30 Oct 7.0 04:05:31 82° NW 04:05:39 84° N 04:10:30 10° E visible
30 Oct 7.3 05:42:10 11° WNW 05:46:40 73° SSW 05:51:36 10° ESE visible
31 Oct 9.9 02:38:33 15° E 02:38:33 15° E 02:39:23 10° ENE visible
31 Oct 7.0 04:15:12 70° WNW 04:15:42 85° N 04:20:34 10° E visible
31 Oct 7.6 05:52:01 10° WNW 05:56:38 57° SSW 06:01:29 10° SE visible
01 Nov 9.7 02:48:13 18° E 02:48:13 18° E 02:49:25 10° E visible
01 Nov 7.0 04:24:52 59° W 04:25:45 88° S 04:30:37 10° ESE visible
01 Nov 8.0 06:02:05 10° W 06:06:31 42° SSW 06:11:10 10° SE visible
